TimeCST,TemperatureF,Dew PointF,Humidity,Sea Level PressureIn,VisibilityMPH,Wind Direction,Wind SpeedMPH,Gust SpeedMPH,PrecipitationIn,Events,Conditions,WindDirDegrees,DateUTC
12:15 AM,21.2,19.4,93,30.14,0.2,Calm,Calm,-,N/A,Fog,Light Freezing Fog,0,2013-02-25 06:15:00
12:35 AM,21.2,19.4,93,30.14,4.0,Calm,Calm,-,N/A,,Clear,0,2013-02-25 06:35:00
12:55 AM,21.2,19.4,93,30.14,4.0,Calm,Calm,-,N/A,,Clear,0,2013-02-25 06:55:00
1:15 AM,19.4,17.6,93,30.15,4.0,Calm,Calm,-,N/A,,Clear,0,2013-02-25 07:15:00
1:35 AM,19.4,19.4,100,30.15,4.0,Calm,Calm,-,N/A,,Clear,0,2013-02-25 07:35:00
1:55 AM,21.2,19.4,93,30.14,3.0,Calm,Calm,-,N/A,,Clear,0,2013-02-25 07:55:00
2:15 AM,21.2,19.4,93,30.14,3.0,Calm,Calm,-,N/A,,Clear,0,2013-02-25 08:15:00
2:35 AM,19.4,17.6,93,30.14,2.5,Calm,Calm,-,N/A,,Clear,0,2013-02-25 08:35:00
2:55 AM,19.4,17.6,93,30.14,3.0,Calm,Calm,-,N/A,,Clear,0,2013-02-25 08:55:00
3:15 AM,19.4,17.6,93,30.14,3.0,Calm,Calm,-,N/A,,Clear,0,2013-02-25 09:15:00
3:35 AM,19.4,17.6,93,30.14,4.0,Calm,Calm,-,N/A,,Mostly Cloudy,0,2013-02-25 09:35:00
3:55 AM,19.4,17.6,93,30.14,4.0,Calm,Calm,-,N/A,,Overcast,0,2013-02-25 09:55:00
4:15 AM,21.2,19.4,93,30.13,4.0,Calm,Calm,-,N/A,,Overcast,0,2013-02-25 10:15:00
4:35 AM,21.2,19.4,93,30.14,5.0,Calm,Calm,-,N/A,,Overcast,0,2013-02-25 10:35:00
4:55 AM,19.4,19.4,100,30.14,5.0,Calm,Calm,-,N/A,,Overcast,0,2013-02-25 10:55:00
5:15 AM,19.4,19.4,100,30.14,5.0,Calm,Calm,-,N/A,,Scattered Clouds,0,2013-02-25 11:15:00
5:35 AM,19.4,17.6,93,30.14,5.0,Calm,Calm,-,N/A,,Mostly Cloudy,0,2013-02-25 11:35:00
5:55 AM,21.2,19.4,93,30.15,5.0,Calm,Calm,-,N/A,,Overcast,0,2013-02-25 11:55:00
6:45 AM,21.2,19.4,93,30.16,4.0,Calm,Calm,-,N/A,,Overcast,0,2013-02-25 12:45:00
7:45 AM,24.8,21.2,86,30.16,5.0,Calm,Calm,-,N/A,,Clear,0,2013-02-25 13:45:00
8:45 AM,26.6,23.0,86,30.17,5.0,Calm,Calm,-,N/A,,Clear,0,2013-02-25 14:45:00
9:45 AM,33.8,23.0,65,30.16,10.0,Calm,Calm,-,N/A,,Clear,0,2013-02-25 15:45:00
10:50 AM,35.6,21.2,56,30.14,10.0,South,6.9,-,N/A,,Clear,170,2013-02-25 16:50:00
11:45 AM,37.4,21.2,52,30.14,10.0,South,5.8,-,N/A,,Scattered Clouds,190,2013-02-25 17:45:00
12:45 PM,39.2,21.2,49,30.13,10.0,SSE,6.9,-,N/A,,Mostly Cloudy,160,2013-02-25 18:45:00
1:45 PM,39.2,23.0,52,30.11,10.0,South,5.8,-,N/A,,Clear,170,2013-02-25 19:45:00
2:45 PM,39.2,24.8,56,30.09,10.0,East,6.9,-,N/A,,Clear,90,2013-02-25 20:45:00
3:45 PM,37.4,24.8,60,30.09,10.0,SE,9.2,-,N/A,,Clear,140,2013-02-25 21:45:00
4:45 PM,35.6,24.8,65,30.09,10.0,ESE,8.1,-,N/A,,Clear,110,2013-02-25 22:45:00
5:45 PM,33.8,24.8,70,30.08,10.0,ESE,4.6,-,N/A,,Clear,110,2013-02-25 23:45:00
6:45 PM,32.0,26.6,80,30.09,10.0,Calm,Calm,-,N/A,,Clear,0,2013-02-26 00:45:00
7:45 PM,32.0,26.6,80,30.08,10.0,ENE,3.5,-,N/A,,Clear,70,2013-02-26 01:45:00
8:15 PM,32.0,28.4,87,30.06,7.0,NE,3.5,-,N/A,,Clear,40,2013-02-26 02:15:00
8:35 PM,32.0,28.4,87,30.06,7.0,Calm,Calm,-,N/A,,Clear,0,2013-02-26 02:35:00
8:45 PM,30.2,26.6,86,30.06,10.0,Calm,Calm,-,N/A,,Clear,0,2013-02-26 02:45:00
8:55 PM,32.0,28.4,87,30.05,7.0,East,3.5,-,N/A,,Clear,90,2013-02-26 02:55:00
9:15 PM,32.0,28.4,87,30.05,7.0,Calm,Calm,-,N/A,,Clear,0,2013-02-26 03:15:00
9:35 PM,32.0,28.4,87,30.06,10.0,Calm,Calm,-,N/A,,Clear,0,2013-02-26 03:35:00
9:55 PM,28.4,26.6,93,30.07,7.0,Calm,Calm,-,N/A,,Clear,0,2013-02-26 03:55:00
10:15 PM,30.2,28.4,93,30.06,7.0,North,4.6,-,N/A,,Clear,360,2013-02-26 04:15:00
10:35 PM,30.2,26.6,86,30.07,7.0,Calm,Calm,-,N/A,,Clear,0,2013-02-26 04:35:00
10:55 PM,28.4,26.6,93,30.07,7.0,Calm,Calm,-,N/A,,Clear,0,2013-02-26 04:55:00
11:15 PM,30.2,28.4,93,30.06,7.0,Calm,Calm,-,N/A,,Clear,0,2013-02-26 05:15:00
11:35 PM,30.2,28.4,93,30.06,7.0,Calm,Calm,-,N/A,,Clear,0,2013-02-26 05:35:00
11:55 PM,30.2,26.6,86,30.05,10.0,NNE,3.5,-,N/A,,Clear,30,2013-02-26 05:55:00